Вернуться в каталог

DELTA 2 R/B

АктивенHEO
NORAD 36120·ROCKET BODY·🇺🇸 United States

Запущен Dec 14, 2009 с Vandenberg Space Force Base

Loading…

Ближайшие Пролёты (ближайшие 24 часа)

TLE

СвежийSource: Space-Track

Эпоха: Sep 13, 2026, 15:08 UTC

1 36120U 09071B   26256.63058497  .00000019  00000-0  00000-0 0  9992
2 36120  97.4996 126.9030 3450404  59.7451 330.0659  5.87187352359076

Отслеживайте DELTA 2 R/B в реальном времени с AllMySat

Download on the App Store